Location: Calvatone
(45.1167°N, 10.4333°E)
Time: 21:04:43
(UTC+00:00)

DMSP B5D2-2 - Pass Details

Date: 28 January 2023
Orbit: 788 x 805 km, 98.3° (Epoch: 21 March)

Event Time Altitude Azimuth Distance (km) Brightness Sun altitude
Rises 16:53:29 0° 16° (NNE) 3,332 7.0 -6.4°
Reaches altitude 10° 16:55:53 10° 20° (NNE) 2,396 6.2 -6.8°
Maximum altitude 17:01:07 61° 101° (E) 913 4.2 -7.6°
Drops below altitude 10° 17:06:19 10° 181° (S) 2,372 6.8 -8.5°
Sets 17:08:40 0° 185° (S) 3,296 7.6 -8.9°
